SL-16 DEB

Satellite information

Favourite Embed

Satellite Type and Status

DEBRISIN ORBIT

Key statistics

Satellite SL-16 DEB at a glance.

Uptime

11882

Days in orbit

Revolutions

≈ 14.1

Per day

Orbit

LEO

Low Earth Orbit

Inclination

71.0

Latest

Satellite identification and parameters

Extended collection of information and parameters for SL-16 DEB.

Object identification

Identified? True

Debris? True

Object name: SL-16 DEB

International designator: 1992-093DH

Object number (NORAD): 22416

Object ID (CCSDS): 22416

Country: COMMONWEALTH OF INDEPENDENT STATES (CIS)

Current information (Y/N): Y

RCS size: SMALL

Orbital parameters

Period: 102.407 minutes

Inclination: 70.959 deg

SMA: 7250.71 km

Apoapsis: 929.213 km

Periapsis: 815.936 km

RAAN: 143.8596 deg

Eccentricy: 0.0078114

Argument of periapsis: 151.1098 deg

Mean anomaly: 11.974 deg

Mean motion: 14.06151134 rev/day

Mean motion (dot): 0.00000224 rev/day2

B* drag term: 0.00016021 1/REarth

Two-line elements (TLE)

Creation date: July 5, 2025, 5:45 p.m.

Reference frame: TEME

Reference center: EARTH

Epoch: July 5, 2025, 7:29 a.m. UTC

TLE line 0: 0 SL-16 DEB

TLE line 1: 1 22416U 92093DH 25186.31197954 .00000224 00000-0 16021-3 0 9990

TLE line 2: 2 22416 70.9590 143.8596 0078114 151.1098 11.9740 14.06151134666869

Live tracking on map

Real-time ground track for satellite SL-16 DEB.

In-orbit conjunctions

A list of the most updated potential collisions computed for object SL-16 DEB.

Target Orbit TCA Probability of collision Miss distance Type
NOAA 9 SSO 2025-03-21 13:10:35 0.0002148072 673.0 (m) PAYLOAD
CZ-6A DEB LEO 2024-12-24 17:28:18 0.003839904 86.0 (m) DEBRIS
FENGYUN 1C DEB SSO 2024-12-20 22:37:52 0.0001326147 304.0 (m) DEBRIS
FENGYUN 1C DEB SSO 2024-11-16 19:10:30 0.0005595289 857.0 (m) DEBRIS
FENGYUN 1C DEB SSO 2024-11-16 05:39:39 0.0001140943 359.0 (m) DEBRIS

Associated space launch

Second generation ELING satellite

SL-16 DEB was lifted into orbit during the mission ‘Zenit-2 | Tselina-2 12’, on board a Zenit-2 space rocket.

The launch took place on Dec. 25, 1992, 5:56 a.m. from 45/1.

For more information about the launch, click the button.

Launch to space Zenit-2 | Tselina-2 12
Zenit-2 | Tselina-2 12

Agency: N/A

Status: Launch Successful

Launch date: Dec. 25, 1992, 5:56 a.m. UTC

Rocket: Zenit-2

Launch pad: 45/1

Location: Baikonur Cosmodrome, Republic of Kazakhstan

...

Latest news about this satellite

There are no fresh news available about this satellite. Check back as we update our databases every day.


Newsletter sign-up

Weekly statistics, charts and insights to help you stay on top of the space industry.